Weather History for Dax, France

Change the Weather History Date:

Saturday, March 9, 2013

  Actual Average (LFBZ) Record (LFBZ)
Temperature  
Mean Temperature 57 °F -  
Max Temperature 66 °F 58 °F 75 °F (2014)
Min Temperature 48 °F 45 °F 30 °F (2005)
Degree Days  
Heating Degree Days 8    
Growing Degree Days 7 (Base 50)    
Moisture  
Dew Point 42 °F    
Average Humidity 61    
Maximum Humidity 82    
Minimum Humidity 40    
Precipitation  
Precipitation 0.00 in - - ()
Sea Level Pressure  
Sea Level Pressure 29.61 in    
Wind  
Wind Speed 5 mph ()    
Max Wind Speed 13 mph    
Max Gust Speed -    
Visibility 6.2 miles    
Events      
Averages and records for this station are not official NWS values.
T = Trace of Precipitation, MM = Missing Value Source: Averaged Metar Reports

Daily Weather History Graph

Daily Weather History Graph

Search for Another Location

Airport:

Trip Planner

Search our weather history database for the weather conditions in past years. The results will help you decide how hot, cold, wet, or windy it might be!

Date:

Astronomy

Mar. 09, 2013 Rise Set
Actual Time 7:27 AM CET 7:03 PM CET
Civil Twilight 6:58 AM CET 7:31 PM CET
Nautical Twilight 6:25 AM CET 8:05 PM CET
Astronomical Twilight 5:51 AM CET 8:38 PM CET
Moon 5:45 AM CET (3/9) 4:45 PM CET (3/9)
Length of Visible Light 12h 33m
Length of Day
11h 36m
Waning Crescent, 7% of the Moon is Illuminated
Mar 9
Waning Crescent
Mar 11
New
Mar 19
First Quarter
Mar 27
Full
Apr 3
Last Quarter

Hourly Weather History & Observations

Time (CET) Temp. Dew Point Humidity Pressure Visibility Wind Dir Wind Speed Gust Speed Precip Events Conditions
12:00 AM 57.2 °F 48.2 °F 72% 29.62 in 6.2 mi SW 8.1 mph - N/A   Unknown
1:00 AM 55.4 °F 46.4 °F 72% 29.62 in 6.2 mi South 6.9 mph - N/A   Unknown
2:00 AM 53.6 °F 44.6 °F 72% 29.62 in 6.2 mi South 6.9 mph - N/A   Unknown
3:00 AM 51.8 °F 44.6 °F 76% 29.62 in 6.2 mi South 4.6 mph - N/A   Unknown
4:00 AM 51.8 °F 44.6 °F 76% 29.62 in 6.2 mi South 5.8 mph - N/A   Unknown
5:00 AM 50.0 °F 42.8 °F 76% 29.62 in 6.2 mi South 4.6 mph - N/A   Unknown
6:00 AM 48.2 °F 42.8 °F 82% 29.62 in 6.2 mi South 4.6 mph - N/A   Unknown
7:00 AM 48.2 °F 42.8 °F 82% 29.62 in 6.2 mi South 4.6 mph - N/A   Unknown
8:00 AM 50.0 °F 42.8 °F 76% 29.59 in 6.2 mi South 4.6 mph - N/A   Unknown
9:00 AM 51.8 °F 42.8 °F 71% 29.62 in 6.2 mi Variable 3.5 mph - N/A   Unknown
10:00 AM 53.6 °F 42.8 °F 67% 29.62 in 6.2 mi South 3.5 mph - N/A   Unknown
11:00 AM 57.2 °F 44.6 °F 63% 29.62 in - SSW 5.8 mph - N/A   Unknown
12:00 PM 62.6 °F 42.8 °F 48% 29.62 in 6.2 mi SW 12.7 mph - N/A   Unknown
1:00 PM 64.4 °F 42.8 °F 45% 29.62 in 6.2 mi West 8.1 mph - N/A   Unknown
2:00 PM 64.4 °F 41.0 °F 42% 29.59 in 6.2 mi West 9.2 mph - N/A   Unknown
3:00 PM 66.2 °F 41.0 °F 40% 29.59 in 6.2 mi WSW 9.2 mph - N/A   Unknown
4:00 PM 64.4 °F 41.0 °F 42% 29.59 in 6.2 mi WSW 8.1 mph - N/A   Unknown
5:00 PM 64.4 °F 41.0 °F 42% 29.59 in 6.2 mi WSW 9.2 mph - N/A   Unknown
6:00 PM 64.4 °F 39.2 °F 40% 29.59 in - West 5.8 mph - N/A   Unknown
7:00 PM 62.6 °F 39.2 °F 42% 29.59 in 6.2 mi WSW 3.5 mph - N/A   Unknown
8:00 PM 59.0 °F 39.2 °F 48% 29.59 in 6.2 mi SW 3.5 mph - N/A   Unknown
9:00 PM 55.4 °F 39.2 °F 54% 29.59 in 6.2 mi South 2.3 mph - N/A   Unknown
10:00 PM 51.8 °F 41.0 °F 67% 29.59 in 6.2 mi ESE 3.5 mph - N/A   Unknown
11:00 PM 51.8 °F 41.0 °F 67% 29.59 in 6.2 mi SE 2.3 mph - N/A   Unknown